Location: Fensholt
(55.9856°N, 10.0808°E)
Time: 19:16:45
(UTC+00:00)

Cosmos 1842 Rocket - Pass Details

Date: 07 June 2020
Orbit: 605 x 634 km, 82.5° (Epoch: 02 July)

Event Time Altitude Azimuth Distance (km) Brightness Sun altitude
Rises 00:33:49 0° 349° (NNW) 2,944 8.2 -9.6°
Reaches altitude 10° 00:36:06 10° 352° (N) 2,028 7.3 -9.5°
Maximum altitude 00:40:34 66° 74° (ENE) 691 4.0 -9.3°
Drops below altitude 10° 00:44:59 10° 158° (SSE) 1,998 5.7 -9.1°
Enters shadow 00:46:05 - 160° (SSE) 2,438 6.2 -9.1°
